Theta_e
331 339 354 354 352 350 348 346 346 345 344 342 340 340 339 338 337 335 333 332 331 331 333 333 335 338 340 339 341 343 344 349 351 353 355 356 354 354 357 358 357 353 357
333 342 354 353 353 351 350 349 348 347 346 343 342 342 342 340 339 338 337 334 333 333 333 335 335 337 342 342 339 342 342 347 351 351 354 354 355 354 356 356 355 353 355
333 343 350 354 354 353 352 351 350 349 347 345 345 345 344 343 340 339 339 338 337 336 336 336 336 336 341 344 340 341 342 344 349 351 353 348 349 355 354 358 355 356 357
335 341 346 354 354 353 353 352 352 350 348 347 347 346 346 344 341 340 340 340 339 340 339 339 338 336 339 343 344 341 342 343 347 349 347 347 349 354 354 356 354 356 355
335 340 344 354 353 354 352 353 352 350 349 348 347 345 345 344 343 344 341 342 341 341 340 339 339 339 337 341 344 344 343 343 345 347 345 344 344 351 355 355 353 353 354
337 340 347 354 353 354 354 353 352 349 349 348 347 345 343 342 344 344 342 341 341 341 340 340 340 339 339 339 342 343 343 343 343 342 342 344 344 352 355 355 353 353 351
334 338 347 354 354 354 353 352 352 351 350 347 345 343 342 342 342 342 340 340 340 340 340 340 340 341 342 341 342 342 343 343 338 339 341 341 345 350 352 352 351 352 352
337 341 345 352 353 354 353 351 350 350 346 344 342 341 339 339 338 338 338 339 338 338 339 339 340 341 341 340 340 340 342 343 339 339 340 340 344 350 352 353 353 351 346
332 334 337 341 345 350 348 349 348 345 343 340 337 335 334 334 335 335 335 336 336 337 337 338 339 342 339 340 339 340 341 342 336 337 341 340 347 350 351 352 352 353 352
326 326 327 329 334 336 338 346 345 343 339 338 336 335 334 335 335 334 334 334 335 336 335 337 338 339 339 340 340 339 340 342 335 337 339 340 348 350 351 350 350 350 349
316 314 320 324 326 327 328 333 342 339 337 337 335 336 335 327 326 327 330 333 334 337 336 337 338 338 338 339 337 338 339 334 335 336 341 345 349 349 350 348 348 345 344
311 313 317 320 321 323 328 324 329 328 328 328 328 326 322 322 321 326 330 333 334 335 336 336 337 338 337 329 329 335 331 333 333 337 342 347 349 350 349 348 345 343 343
314 317 317 320 322 323 323 323 322 322 322 324 325 323 322 323 322 322 321 324 322 329 327 331 331 331 329 326 325 327 330 332 331 340 342 348 348 348 348 347 344 346 346
313 317 319 322 322 322 324 324 322 323 322 322 323 324 321 321 321 321 322 322 321 323 324 325 326 326 327 326 324 324 330 330 331 339 340 347 347 347 347 346 344 345 345
316 320 322 322 323 325 324 323 322 323 324 323 322 323 323 321 321 322 321 320 320 320 322 322 323 324 324 325 324 325 329 329 332 337 337 347 346 346 347 347 345 345 343
317 320 320 322 324 325 323 322 322 323 325 324 324 324 325 323 323 323 320 320 320 320 321 322 323 322 322 323 322 325 330 328 333 335 337 341 345 345 345 346 345 344 342
318 319 320 321 322 322 321 321 323 324 326 324 324 324 325 323 322 321 320 320 320 321 320 321 321 322 322 324 322 325 328 330 333 333 335 337 342 344 344 344 344 343 343
318 318 321 326 320 322 321 322 324 325 324 325 324 324 326 325 323 320 320 321 322 320 319 320 320 320 321 325 321 323 325 329 332 333 335 335 338 339 342 344 343 342 343
318 318 320 320 321 322 322 321 323 324 324 325 325 325 324 324 324 321 321 321 322 320 318 320 319 320 323 323 321 322 324 326 328 335 336 337 336 336 337 342 343 341 341
317 319 319 319 322 321 320 323 323 323 325 325 325 324 325 323 324 321 321 321 321 319 318 318 317 320 321 323 324 322 322 323 326 331 333 335 335 335 334 337 338 338 339
318 319 318 319 320 320 322 320 321 321 321 323 324 327 326 322 322 321 321 321 320 318 318 318 318 320 318 319 318 318 322 325 325 332 332 335 333 334 334 333 335 336 337
317 319 320 318 320 322 323 322 323 323 323 323 324 327 328 325 324 323 322 320 320 318 318 318 318 317 316 319 316 318 318 321 327 332 334 333 333 334 332 333 333 333 334
315 318 319 320 321 324 323 323 322 321 322 321 321 325 325 328 326 325 324 321 320 318 320 318 318 318 316 318 321 317 315 313 321 325 328 330 330 331 331 331 330 332 331
314 319 319 321 323 324 324 321 318 317 317 319 319 321 321 325 327 325 323 321 320 319 319 319 319 318 318 317 320 323 320 323 317 316 324 326 328 328 329 329 329 330 330
316 317 320 321 324 324 323 322 319 317 319 320 318 319 320 323 326 326 323 322 321 320 320 321 319 318 320 320 318 319 318 321 321 320 316 320 325 326 328 329 329 330 331
315 317 319 321 322 323 322 321 319 317 318 317 316 317 319 322 323 325 324 321 322 320 322 320 319 318 320 320 320 323 320 317 319 318 319 319 319 323 326 328 329 330 331
Wind_Speed
9 13 20 19 18 17 16 15 13 11 10 10 10 9 10 9 8 7 6 5 4 4 5 6 7 7 7 7 8 8 6 7 9 6 11 11 13 14 13 17 18 14 16
14 14 21 19 19 19 18 16 14 12 11 10 9 7 8 8 8 8 6 5 5 5 6 7 8 8 8 7 8 8 7 6 9 8 10 10 15 14 14 19 18 17 17
15 14 16 20 20 20 18 16 15 14 12 11 11 10 11 10 10 10 9 7 6 6 7 8 9 9 8 9 8 9 7 6 7 7 12 6 6 15 14 18 21 23 21
14 13 15 22 20 18 15 14 14 14 13 13 13 12 12 12 12 13 11 10 8 9 9 9 10 10 10 8 9 9 8 7 6 8 6 5 5 15 15 17 21 20 21
14 14 13 19 17 15 14 14 13 13 14 14 13 13 13 14 14 14 14 13 12 12 12 12 10 11 11 10 8 9 8 7 6 5 5 5 4 10 17 19 20 20 19
10 12 14 19 17 15 15 15 14 14 14 13 15 13 13 14 13 13 15 15 15 15 14 14 12 11 12 11 10 9 9 7 7 3 5 7 6 11 18 21 21 20 17
9 9 12 18 17 17 17 17 15 14 11 10 11 12 13 13 13 13 14 15 16 17 16 16 14 14 12 10 9 8 8 9 5 4 4 6 7 16 19 21 20 19 19
14 10 12 19 19 19 18 16 15 13 12 12 12 11 10 11 13 15 15 16 17 18 18 17 16 15 13 11 8 7 9 9 5 3 5 5 8 17 21 21 20 19 19
13 12 10 11 14 18 15 13 13 13 14 13 11 11 11 11 13 14 15 17 18 19 19 19 18 15 15 12 10 8 10 9 5 3 4 4 11 20 22 21 20 19 18
10 10 7 5 5 6 6 12 14 15 13 13 11 11 10 10 12 11 12 14 16 18 19 18 18 16 16 13 10 9 10 11 4 4 4 4 14 22 20 22 21 21 20
4 5 7 7 6 6 6 6 10 13 13 11 10 10 8 4 6 7 9 13 14 15 18 18 17 16 17 14 12 10 10 3 4 3 3 11 16 22 23 24 21 20 18
6 5 8 7 7 6 4 4 5 4 4 4 5 6 3 5 5 6 9 12 14 14 14 17 17 17 15 4 4 10 3 5 4 4 4 16 19 22 23 23 23 22 20
7 5 7 7 7 7 4 4 2 1 2 3 6 6 5 4 4 3 3 3 3 8 3 5 6 5 6 4 4 4 4 4 3 5 6 14 19 22 24 25 24 22 20
9 9 8 7 7 6 4 3 2 3 3 3 4 6 4 3 4 4 3 4 3 3 3 3 3 4 5 6 6 5 5 4 3 5 6 16 17 20 23 25 23 22 19
10 9 10 9 7 6 5 3 3 4 3 4 4 5 4 4 4 4 4 4 4 3 3 4 4 4 5 5 4 5 5 5 5 4 4 17 17 18 22 23 24 21 17
11 10 9 9 8 7 5 4 4 3 4 4 4 5 6 4 5 4 4 4 4 4 3 4 5 4 4 3 5 5 6 5 5 5 5 7 17 16 20 22 21 23 21
11 9 9 8 8 7 4 4 4 4 3 4 4 5 6 5 5 5 4 4 4 4 5 4 4 4 3 3 5 5 5 6 5 5 4 5 9 17 20 23 24 25 23
11 10 8 7 7 7 5 2 2 3 3 4 4 4 5 5 6 5 4 4 4 3 4 4 4 3 4 4 3 3 4 4 6 6 4 4 6 6 17 23 24 24 19
11 9 8 8 7 6 2 1 3 4 3 4 3 3 5 5 5 4 4 4 4 4 4 4 2 3 2 2 4 4 4 3 5 5 8 6 8 6 6 18 22 20 24
9 9 8 6 7 5 1 1 2 2 3 3 3 3 5 4 5 3 4 5 3 3 4 3 3 2 2 3 3 3 3 1 3 5 8 6 7 8 5 8 9 13 23
8 9 8 7 5 3 2 1 1 3 3 3 3 5 5 5 5 5 3 4 4 5 5 5 3 4 2 3 4 2 3 4 3 4 5 6 7 6 9 7 6 5 10
9 8 8 6 6 3 2 2 2 2 3 3 2 4 4 5 6 5 5 4 5 4 5 5 5 3 2 4 4 3 2 3 3 2 5 6 8 7 8 8 8 6 8
9 8 8 7 7 4 2 1 2 2 2 2 1 2 2 3 5 5 4 5 5 4 4 5 5 6 4 1 3 5 3 3 3 1 4 6 9 8 7 8 10 9 9
8 7 8 7 7 4 4 2 1 1 1 1 1 2 3 2 2 3 4 5 5 4 5 4 4 4 5 4 2 3 1 6 3 3 1 5 8 9 10 8 9 9 9
8 8 8 7 7 4 4 4 2 1 0 1 1 2 3 2 1 3 4 5 4 4 5 6 5 6 3 4 3 3 3 4 3 3 2 3 7 6 7 9 8 8 7
7 7 7 8 4 4 5 4 4 3 4 3 3 2 3 1 0 3 4 5 4 4 6 5 4 6 5 5 3 5 5 4 5 4 4 3 7 4 6 7 8 6 6
Wind_Direction
209 180 176 171 168 170 176 181 181 179 180 182 188 191 188 183 180 178 176 185 201 249 262 269 268 265 270 280 281 284 303 319 309 230 194 196 162 163 156 142 138 123 125
151 173 176 174 175 178 182 185 185 189 191 198 205 217 230 220 210 206 200 206 210 225 255 264 267 261 270 262 270 273 285 310 320 230 219 206 168 167 166 153 141 132 132
155 168 173 181 182 184 185 185 186 191 196 204 213 220 228 234 242 238 226 222 225 232 242 256 259 261 266 255 253 263 265 290 311 263 215 214 188 167 170 157 151 145 143
156 165 179 187 187 185 186 190 193 196 204 211 216 227 234 233 241 248 245 241 241 240 240 245 260 258 258 269 257 251 258 267 300 286 219 223 206 176 169 156 148 144 139
164 173 181 183 185 184 186 194 201 205 213 221 222 228 231 235 239 242 247 248 246 248 254 253 243 254 251 256 263 250 244 248 274 292 199 218 211 190 166 152 151 150 147
160 169 176 176 181 183 189 196 203 213 221 226 226 232 233 239 245 243 243 244 249 252 254 258 250 246 246 249 260 259 247 236 260 273 212 210 200 193 165 155 155 151 151
158 164 170 172 178 185 191 196 205 213 208 208 222 235 240 245 249 251 252 251 253 254 254 253 249 241 238 237 244 251 249 238 235 255 211 220 200 185 178 158 157 157 153
154 158 170 176 181 187 189 190 196 198 195 202 214 225 240 250 254 256 257 258 258 257 255 252 249 240 234 225 225 243 242 229 232 242 208 212 204 188 178 164 159 158 158
160 165 176 179 183 187 183 184 183 197 203 208 216 222 228 243 255 258 261 261 258 257 254 254 252 245 232 215 214 221 233 226 196 234 198 195 213 186 184 164 160 158 159
170 174 169 148 144 150 170 187 196 207 208 212 215 218 220 234 244 257 262 260 260 261 258 247 245 243 226 209 201 217 228 218 190 213 194 196 209 184 182 159 161 146 144
152 151 143 153 154 162 190 217 215 222 224 223 223 224 227 230 239 260 262 261 264 264 253 249 244 237 220 207 199 221 228 195 202 200 195 203 188 192 182 169 155 149 152
158 137 141 135 135 163 146 186 206 231 253 226 200 218 195 213 232 242 261 275 272 279 254 244 234 218 212 191 208 220 203 199 199 189 194 205 188 185 177 166 166 162 175
151 142 146 153 159 161 156 130 129 216 208 187 208 220 218 214 230 258 280 279 284 268 274 240 220 200 192 171 206 212 210 204 184 200 205 206 195 192 181 170 173 170 172
161 152 158 164 160 162 144 142 177 168 187 207 228 233 207 219 223 239 246 255 253 250 245 218 182 182 185 186 202 207 214 206 171 202 210 205 200 196 184 166 169 175 165
149 160 171 167 161 163 133 182 200 215 216 224 231 225 218 217 225 206 233 240 235 244 216 200 185 186 200 202 193 206 220 206 187 191 200 204 192 192 183 173 177 171 155
155 166 166 166 162 144 177 192 223 229 243 250 245 230 231 229 216 201 225 230 234 213 220 196 182 188 207 191 214 214 224 206 190 185 194 191 184 192 189 179 169 162 155
161 160 163 156 146 143 174 225 236 244 239 245 246 248 242 218 202 198 220 234 236 221 210 199 190 174 201 207 221 211 205 195 180 172 177 157 173 177 170 169 164 167 169
144 156 146 124 131 136 163 207 225 240 234 247 254 256 251 232 210 203 219 232 240 205 191 185 168 181 209 210 193 196 203 172 163 162 162 155 140 160 173 172 171 166 172
150 143 124 131 132 139 165 245 267 246 227 241 239 242 232 237 231 205 220 235 224 194 188 166 150 158 181 198 151 185 190 155 146 155 161 142 153 149 155 176 167 166 153
138 126 131 137 134 144 119 34 305 271 263 233 230 235 229 228 232 217 219 225 171 174 168 149 136 158 149 186 153 138 87 129 126 156 165 166 148 148 131 149 161 161 169
128 127 139 136 153 119 83 36 313 252 262 253 234 246 225 224 234 221 222 197 169 169 177 163 137 165 152 184 104 101 56 84 109 157 140 150 150 126 118 116 154 158 193
142 144 138 149 147 129 116 205 210 246 259 238 245 267 258 218 224 217 214 199 176 152 158 160 142 113 137 198 142 135 110 21 48 145 144 152 142 138 127 128 120 127 114
141 154 151 156 143 116 129 115 341 337 313 357 329 296 296 261 196 201 197 195 167 155 159 164 155 149 132 59 134 132 114 174 137 50 159 148 141 132 126 125 134 127 128
162 149 144 152 133 137 136 96 109 255 296 304 285 294 320 19 222 171 163 176 168 149 166 163 152 152 120 148 58 71 92 123 148 135 159 142 129 127 129 132 132 134 139
148 150 146 141 136 150 124 137 100 20 49 351 316 305 325 321 56 172 155 171 151 153 168 160 154 137 124 128 131 106 71 62 105 107 107 123 96 110 120 131 136 133 127
144 138 144 138 152 160 132 144 106 103 81 55 343 341 324 345 180 170 124 138 162 161 148 147 144 137 133 141 133 144 147 153 147 144 125 119 85 91 110 115 131 115 118